Home > Weather > Regina > Past weeks

Flag for Canada Weather for the Past 2 Weeks in Regina, Saskatchewan, Canada

Now
59 °F

Passing clouds.


Feels Like: 56 °F
Forecast: 39 / 64 °F
Wind: 18 mph from Southeast

Location: Regina Weather Station

Current Time: Apr 29, 2016 at 8:05:10 PM

Latest Report: Apr 29, 2016 at 7:00 PM


Visibility: 15 mi

Pressure: 30.20 "Hg (28.21 "Hg at 577m altitude)

Humidity: 17%

Dew Point: 14 °F

Location of ReginaLocation

Historic Weather in Regina — Graph

°F

Regina Temperature Yesterday

Maximum temperature yesterday: 61 °F (at 4:00 PM)
Minimum temperature yesterday: 36 °F (at 6:00 AM)
Average temperature yesterday: 49 °F

High & Low Weather Summary for the Past Weeks

 TemperatureHumidityPressure
High73 °F (Apr 20, 2:00 PM)100% (Apr 17, 2:00 AM)30.63 "Hg (Apr 17, 2:00 AM)
Low19 °F (Apr 17, 6:00 AM)13% (Apr 17, 2:00 PM)29.80 "Hg (Apr 14, 7:00 PM)
Average45 °F48%30.18 "Hg
* Reported Apr 14 6:00 PM — Apr 29 6:00 PM, Regina, Weather by CustomWeather, © 2016

Note: Actual official high and low records may vary slightly from our data, if they occured in-between our weather recording intervals... More about our weather records

Advertising

Regina Weather History for the Previous 24 Hours

Scroll right to see more
 ConditionsComfort  
Time TempWeatherWind HumidityBarometerVisibility
6:00 PM
Fri, Apr 29
63 °FPassing clouds.16 mph15%30.19 "Hg15 mi
5:00 PM63 °FPassing clouds.16 mph14%30.17 "Hg15 mi
4:00 PM63 °FPassing clouds.15 mph14%30.17 "Hg15 mi
3:00 PM63 °FPassing clouds.17 mph13%30.19 "Hg15 mi
2:00 PM61 °FPassing clouds.17 mph15%30.19 "Hg15 mi
1:00 PM61 °FPassing clouds.15 mph15%30.21 "Hg15 mi
12:00 PM59 °FPassing clouds.18 mph14%30.23 "Hg15 mi
11:00 AM57 °FPassing clouds.15 mph17%30.24 "Hg15 mi
10:00 AM54 °FPassing clouds.15 mph24%30.23 "Hg15 mi
9:00 AM50 °FPassing clouds.15 mph25%30.25 "Hg15 mi
8:00 AM45 °FPassing clouds.13 mph31%30.26 "Hg15 mi
7:00 AM37 °FPassing clouds.14 mph38%30.27 "Hg15 mi
6:00 AM34 °FPassing clouds.13 mph44%30.26 "Hg15 mi
5:00 AM34 °FClear.12 mph48%30.26 "Hg15 mi
4:00 AM32 °FClear.10 mph51%30.26 "Hg15 mi
3:00 AM34 °FPassing clouds.12 mph48%30.26 "Hg15 mi
2:00 AM37 °FPassing clouds.13 mph41%30.26 "Hg15 mi
1:00 AM39 °FPassing clouds.10 mph42%30.26 "Hg15 mi
12:00 AM43 °FPassing clouds.12 mph36%30.25 "Hg15 mi
11:00 PM
Thu, Apr 28
46 °FPassing clouds.12 mph34%30.25 "Hg15 mi
10:00 PM48 °FPassing clouds.15 mph32%30.25 "Hg15 mi
9:00 PM50 °FPassing clouds.14 mph30%30.23 "Hg15 mi
8:00 PM55 °FHigh level clouds.15 mph23%30.22 "Hg15 mi
Weather by CustomWeather, © 2016

See weather overviewHow to use our weather pages